owner,sensor,date,latitude,longitude,vertical_datum,wind_speed,wind_to_direction,wind_speed_of_gust,qcFlag 
COMPS,ioos:station:USF.COMPS:C10:1,2013-12-03T16:05:00Z,27.1690,-82.9260,3.0,6.554,163.24,7.737,'1111122,1111122,1111122' 
COMPS,ioos:station:USF.COMPS:C10:1,2013-12-03T16:35:00Z,27.1690,-82.9260,3.0,6.287,156.863,7.353,'1111122,1111122,1111122' 
COMPS,ioos:station:USF.COMPS:C10:1,2013-12-03T17:05:00Z,27.1690,-82.9260,3.0,5.66,158.998,6.81,'1111122,1111122,1111122' 
COMPS,ioos:station:USF.COMPS:C10:1,2013-12-03T17:35:00Z,27.1690,-82.9260,3.0,3.699,155.736,4.913,'1111122,1111122,1111122' 
COMPS,ioos:station:USF.COMPS:C10:1,2013-12-03T18:05:00Z,27.1690,-82.9260,3.0,3.996,146.937,4.84,'1111122,1111122,1111122' 
COMPS,ioos:station:USF.COMPS:C10:1,2013-12-03T18:35:00Z,27.1690,-82.9260,3.0,4.83,151.811,5.827,'1111122,1111122,1111122' 
COMPS,ioos:station:USF.COMPS:C10:1,2013-12-03T19:05:00Z,27.1690,-82.9260,3.0,5.159,156.777,6.287,'1111122,1111122,1111122' 
COMPS,ioos:station:USF.COMPS:C10:1,2013-12-03T19:35:00Z,27.1690,-82.9260,3.0,6.171,150.2,7.243,'1111122,1111122,1111122' 
COMPS,ioos:station:USF.COMPS:C10:1,2013-12-03T20:05:00Z,27.1690,-82.9260,3.0,6.294,158.757,7.597,'1111122,1111122,1111122' 
COMPS,ioos:station:USF.COMPS:C10:1,2013-12-03T20:35:00Z,27.1690,-82.9260,3.0,5.358,171.211,6.293,'1111122,1111122,1111122' 
COMPS,ioos:station:USF.COMPS:C10:1,2013-12-03T21:05:00Z,27.1690,-82.9260,3.0,5.064,166.694,6.283,'1111122,1111122,1111122' 
COMPS,ioos:station:USF.COMPS:C10:1,2013-12-03T21:35:00Z,27.1690,-82.9260,3.0,4.882,166.387,6.05,'1111122,1111122,1111122' 
COMPS,ioos:station:USF.COMPS:C10:1,2013-12-03T22:05:00Z,27.1690,-82.9260,3.0,4.576,166.88,5.71,'1111122,1111122,1111122' 
COMPS,ioos:station:USF.COMPS:C10:1,2013-12-03T22:35:00Z,27.1690,-82.9260,3.0,3.676,153.056,4.45,'1111122,1111122,1111122' 
COMPS,ioos:station:USF.COMPS:C10:1,2013-12-03T23:05:00Z,27.1690,-82.9260,3.0,4.072,162.885,4.773,'1111122,1111122,1111122' 
COMPS,ioos:station:USF.COMPS:C10:1,2013-12-03T23:35:00Z,27.1690,-82.9260,3.0,4.421,158.441,5.243,'1111122,1111122,1111122' 
COMPS,ioos:station:USF.COMPS:C10:1,2013-12-04T00:05:00Z,27.1690,-82.9260,3.0,4.423,167.365,5.4,'1111122,1111122,1111122' 
COMPS,ioos:station:USF.COMPS:C10:1,2013-12-04T00:35:00Z,27.1690,-82.9260,3.0,5.272,173.797,6.35,'1111122,1111122,1111122' 
COMPS,ioos:station:USF.COMPS:C10:1,2013-12-04T01:05:00Z,27.1690,-82.9260,3.0,4.442,160.541,5.593,'1111122,1111122,1111122' 
COMPS,ioos:station:USF.COMPS:C10:1,2013-12-04T01:35:00Z,27.1690,-82.9260,3.0,4.323,158.394,5.313,'1111122,1111122,1111122' 
COMPS,ioos:station:USF.COMPS:C10:1,2013-12-04T02:05:00Z,27.1690,-82.9260,3.0,4.38,159.209,5.4,'1111122,1111122,1111122' 
COMPS,ioos:station:USF.COMPS:C10:1,2013-12-04T02:35:00Z,27.1690,-82.9260,3.0,5.05,169.037,6.36,'1111122,1111122,1111122' 
COMPS,ioos:station:USF.COMPS:C10:1,2013-12-04T03:05:00Z,27.1690,-82.9260,3.0,5.442,168.099,6.73,'1111122,1111122,1111122' 
COMPS,ioos:station:USF.COMPS:C10:1,2013-12-04T03:35:00Z,27.1690,-82.9260,3.0,5.097,168.922,6.587,'1111122,1111122,1111122' 
COMPS,ioos:station:USF.COMPS:C10:1,2013-12-04T04:05:00Z,27.1690,-82.9260,3.0,4.4,165.717,6.893,'1111122,1111122,1111122' 
COMPS,ioos:station:USF.COMPS:C10:1,2013-12-04T04:35:00Z,27.1690,-82.9260,3.0,5.826,180.126,7.74,'1111122,1111122,1111122' 
COMPS,ioos:station:USF.COMPS:C10:1,2013-12-04T05:05:00Z,27.1690,-82.9260,3.0,5.969,193.265,7.14,'1111122,1111122,1111122' 
COMPS,ioos:station:USF.COMPS:C10:1,2013-12-04T05:35:00Z,27.1690,-82.9260,3.0,3.735,208.948,5.093,'1111122,1111122,1111122' 
COMPS,ioos:station:USF.COMPS:C10:1,2013-12-04T06:05:00Z,27.1690,-82.9260,3.0,3.964,182.565,5.3,'1111122,1111122,1111122' 
COMPS,ioos:station:USF.COMPS:C10:1,2013-12-04T06:35:00Z,27.1690,-82.9260,3.0,5.056,179.596,6.153,'1111122,1111122,1111122' 
COMPS,ioos:station:USF.COMPS:C10:1,2013-12-04T07:05:00Z,27.1690,-82.9260,3.0,3.979,185.494,4.663,'1111122,1111122,1111122' 
COMPS,ioos:station:USF.COMPS:C10:1,2013-12-04T07:35:00Z,27.1690,-82.9260,3.0,3.7,188.942,4.517,'1111122,1111122,1111122' 
COMPS,ioos:station:USF.COMPS:C10:1,2013-12-04T08:05:00Z,27.1690,-82.9260,3.0,3.164,177.23,3.803,'1111122,1111122,1111122' 
COMPS,ioos:station:USF.COMPS:C10:1,2013-12-04T08:35:00Z,27.1690,-82.9260,3.0,3.465,175.372,4.183,'1111122,1111122,1111122' 
COMPS,ioos:station:USF.COMPS:C10:1,2013-12-04T09:05:00Z,27.1690,-82.9260,3.0,3.058,171.282,3.643,'1111122,1111122,1111122' 
COMPS,ioos:station:USF.COMPS:C10:1,2013-12-04T09:35:00Z,27.1690,-82.9260,3.0,2.776,160.642,3.453,'1111122,1111122,1111122' 
COMPS,ioos:station:USF.COMPS:C10:1,2013-12-04T10:05:00Z,27.1690,-82.9260,3.0,2.977,173.509,3.48,'1111122,1111122,1111122' 
COMPS,ioos:station:USF.COMPS:C10:1,2013-12-04T10:35:00Z,27.1690,-82.9260,3.0,2.884,161.326,3.287,'1111122,1111122,1111122' 
COMPS,ioos:station:USF.COMPS:C10:1,2013-12-04T11:05:00Z,27.1690,-82.9260,3.0,2.728,147.382,3.17,'1111122,1111122,1111122' 
COMPS,ioos:station:USF.COMPS:C10:1,2013-12-04T11:35:00Z,27.1690,-82.9260,3.0,2.883,159.347,3.383,'1111122,1111122,1111122' 
COMPS,ioos:station:USF.COMPS:C10:1,2013-12-04T12:05:00Z,27.1690,-82.9260,3.0,2.646,145.602,3.04,'1111122,1111122,1111122' 
COMPS,ioos:station:USF.COMPS:C10:1,2013-12-04T12:35:00Z,27.1690,-82.9260,3.0,2.615,143.805,3.017,'1111122,1111122,1111122' 
COMPS,ioos:station:USF.COMPS:C10:1,2013-12-04T13:05:00Z,27.1690,-82.9260,3.0,2.624,117.993,3.65,'1111122,1111122,1111122' 
COMPS,ioos:station:USF.COMPS:C10:1,2013-12-04T13:35:00Z,27.1690,-82.9260,3.0,4.076,127.168,5.097,'1111122,1111122,1111122' 
COMPS,ioos:station:USF.COMPS:C10:1,2013-12-05T17:05:00Z,27.1690,-82.9260,3.0,4.097,148.505,5.087,'1111122,1111122,1111122' 
COMPS,ioos:station:USF.COMPS:C10:1,2013-12-05T17:35:00Z,27.1690,-82.9260,3.0,3.945,151.647,4.753,'1111122,1111122,1111122' 
COMPS,ioos:station:USF.COMPS:C10:1,2013-12-05T18:05:00Z,27.1690,-82.9260,3.0,4.109,150.525,5.017,'1111122,1111122,1111122' 
COMPS,ioos:station:USF.COMPS:C10:1,2013-12-05T18:35:00Z,27.1690,-82.9260,3.0,3.676,156.601,4.75,'1111122,1111122,1111122' 
COMPS,ioos:station:USF.COMPS:C10:1,2013-12-05T19:05:00Z,27.1690,-82.9260,3.0,3.805,157.849,4.4,'1111122,1111122,1111122' 
COMPS,ioos:station:USF.COMPS:C10:1,2013-12-05T19:35:00Z,27.1690,-82.9260,3.0,3.24,151.113,4.26,'1111122,1111122,1111122' 
COMPS,ioos:station:USF.COMPS:C10:1,2013-12-05T20:05:00Z,27.1690,-82.9260,3.0,3.698,167.73,4.817,'1111122,1111122,1111122' 
COMPS,ioos:station:USF.COMPS:C10:1,2013-12-05T20:35:00Z,27.1690,-82.9260,3.0,3.85,164.132,4.787,'1111122,1111122,1111122' 
COMPS,ioos:station:USF.COMPS:C10:1,2013-12-05T21:05:00Z,27.1690,-82.9260,3.0,3.663,174.094,4.4,'1111122,1111122,1111122' 
COMPS,ioos:station:USF.COMPS:C10:1,2013-12-05T21:35:00Z,27.1690,-82.9260,3.0,2.95,181.991,3.537,'1111122,1111122,1111122' 
COMPS,ioos:station:USF.COMPS:C10:1,2013-12-05T22:05:00Z,27.1690,-82.9260,3.0,2.149,184.86,2.71,'1111122,1111122,1111122' 
COMPS,ioos:station:USF.COMPS:C10:1,2013-12-05T22:35:00Z,27.1690,-82.9260,3.0,2.197,168.731,2.613,'1111122,1111122,1111122' 
COMPS,ioos:station:USF.COMPS:C10:1,2013-12-05T23:05:00Z,27.1690,-82.9260,3.0,1.484,165.326,2.15,'1111122,1111122,1111122' 
COMPS,ioos:station:USF.COMPS:C10:1,2013-12-05T23:35:00Z,27.1690,-82.9260,3.0,0.909,176.793,1.28,'1111122,1111122,1111122' 
COMPS,ioos:station:USF.COMPS:C10:1,2013-12-06T00:05:00Z,27.1690,-82.9260,3.0,0.88,152.738,1.19,'1111122,1111122,1111122' 
COMPS,ioos:station:USF.COMPS:C10:1,2013-12-06T00:35:00Z,27.1690,-82.9260,3.0,1.029,111.38,1.377,'1111122,1111122,1111122' 
COMPS,ioos:station:USF.COMPS:C10:1,2013-12-06T01:05:00Z,27.1690,-82.9260,3.0,1.462,100.458,1.957,'1111122,1111122,1111122' 
COMPS,ioos:station:USF.COMPS:C10:1,2013-12-06T01:35:00Z,27.1690,-82.9260,3.0,1.541,99.293,2.017,'1111122,1111122,1111122' 
COMPS,ioos:station:USF.COMPS:C10:1,2013-12-06T02:05:00Z,27.1690,-82.9260,3.0,2.068,115.009,2.57,'1111122,1111122,1111122' 
COMPS,ioos:station:USF.COMPS:C10:1,2013-12-06T02:35:00Z,27.1690,-82.9260,3.0,2.262,126.841,2.847,'1111122,1111122,1111122' 
COMPS,ioos:station:USF.COMPS:C10:1,2013-12-06T03:05:00Z,27.1690,-82.9260,3.0,2.459,136.848,2.927,'1111122,1111122,1111122' 
COMPS,ioos:station:USF.COMPS:C10:1,2013-12-06T03:35:00Z,27.1690,-82.9260,3.0,2.95,136.351,3.397,'1111122,1111122,1111122' 
COMPS,ioos:station:USF.COMPS:C10:1,2013-12-06T04:05:00Z,27.1690,-82.9260,3.0,3.387,134.095,3.98,'1111122,1111122,1111122' 
COMPS,ioos:station:USF.COMPS:C10:1,2013-12-06T04:35:00Z,27.1690,-82.9260,3.0,3.355,133.819,4.053,'1111122,1111122,1111122' 
COMPS,ioos:station:USF.COMPS:C10:1,2013-12-06T05:05:00Z,27.1690,-82.9260,3.0,3.45,124.076,4.197,'1111122,1111122,1111122' 
COMPS,ioos:station:USF.COMPS:C10:1,2013-12-06T05:35:00Z,27.1690,-82.9260,3.0,3.402,137.115,4.237,'1111122,1111122,1111122' 
COMPS,ioos:station:USF.COMPS:C10:1,2013-12-06T06:05:00Z,27.1690,-82.9260,3.0,2.944,138.675,3.493,'1111122,1111122,1111122' 
COMPS,ioos:station:USF.COMPS:C10:1,2013-12-06T06:35:00Z,27.1690,-82.9260,3.0,3.005,135.403,3.743,'1111122,1111122,1111122' 
COMPS,ioos:station:USF.COMPS:C10:1,2013-12-06T07:05:00Z,27.1690,-82.9260,3.0,3.036,131.611,3.607,'1111122,1111122,1111122' 
COMPS,ioos:station:USF.COMPS:C10:1,2013-12-06T07:35:00Z,27.1690,-82.9260,3.0,3.176,137.119,3.763,'1111122,1111122,1111122' 
COMPS,ioos:station:USF.COMPS:C10:1,2013-12-06T08:05:00Z,27.1690,-82.9260,3.0,3.215,130.534,3.97,'1111122,1111122,1111122' 
COMPS,ioos:station:USF.COMPS:C10:1,2013-12-06T08:35:00Z,27.1690,-82.9260,3.0,3.034,106.131,3.61,'1111122,1111122,1111122' 
COMPS,ioos:station:USF.COMPS:C10:1,2013-12-06T09:05:00Z,27.1690,-82.9260,3.0,3.242,115.532,3.823,'1111122,1111122,1111122' 
COMPS,ioos:station:USF.COMPS:C10:1,2013-12-06T09:35:00Z,27.1690,-82.9260,3.0,3.853,123.696,4.447,'1111122,1111122,1111122' 
COMPS,ioos:station:USF.COMPS:C10:1,2013-12-06T10:05:00Z,27.1690,-82.9260,3.0,3.638,114.452,4.323,'1111122,1111122,1111122' 
COMPS,ioos:station:USF.COMPS:C10:1,2013-12-06T10:35:00Z,27.1690,-82.9260,3.0,3.207,109.771,3.84,'1111122,1111122,1111122' 
COMPS,ioos:station:USF.COMPS:C10:1,2013-12-06T11:05:00Z,27.1690,-82.9260,3.0,3.536,107.796,4.187,'1111122,1111122,1111122' 
COMPS,ioos:station:USF.COMPS:C10:1,2013-12-06T11:35:00Z,27.1690,-82.9260,3.0,3.613,104.584,4.26,'1111122,1111122,1111122' 
COMPS,ioos:station:USF.COMPS:C10:1,2013-12-06T12:05:00Z,27.1690,-82.9260,3.0,4.23,108.522,5.22,'1111122,1111122,1111122' 
COMPS,ioos:station:USF.COMPS:C10:1,2013-12-06T12:35:00Z,27.1690,-82.9260,3.0,4.318,115.558,5.44,'1111122,1111122,1111122' 
COMPS,ioos:station:USF.COMPS:C10:1,2013-12-06T13:05:00Z,27.1690,-82.9260,3.0,4.973,123.211,6.147,'1111122,1111122,1111122' 
COMPS,ioos:station:USF.COMPS:C10:1,2013-12-06T13:35:00Z,27.1690,-82.9260,3.0,5.144,127.68,6.4,'1111122,1111122,1111122' 
COMPS,ioos:station:USF.COMPS:C10:1,2013-12-06T14:05:00Z,27.1690,-82.9260,3.0,5.157,120.47,6.19,'1111122,1111122,1111122' 
COMPS,ioos:station:USF.COMPS:C10:1,2013-12-06T14:35:00Z,27.1690,-82.9260,3.0,5.036,117.768,6.233,'1111122,1111122,1111122' 
COMPS,ioos:station:USF.COMPS:C10:1,2013-12-06T16:05:00Z,27.1690,-82.9260,3.0,6.127,150.272,7.673,'1111122,1111122,1111122' 
COMPS,ioos:station:USF.COMPS:C10:1,2013-12-06T16:35:00Z,27.1690,-82.9260,3.0,5.86,149.537,7.17,'1111122,1111122,1111122' 
COMPS,ioos:station:USF.COMPS:C10:1,2013-12-06T17:05:00Z,27.1690,-82.9260,3.0,6.176,153.522,7.447,'1111122,1111122,1111122' 
COMPS,ioos:station:USF.COMPS:C10:1,2013-12-06T17:35:00Z,27.1690,-82.9260,3.0,4.655,152.94,5.83,'1111122,1111122,1111122' 
COMPS,ioos:station:USF.COMPS:C10:1,2013-12-06T18:05:00Z,27.1690,-82.9260,3.0,4.165,142.971,4.963,'1111122,1111122,1111122' 
COMPS,ioos:station:USF.COMPS:C10:1,2013-12-06T18:35:00Z,27.1690,-82.9260,3.0,4.755,148.263,5.687,'1111122,1111122,1111122' 
COMPS,ioos:station:USF.COMPS:C10:1,2013-12-06T19:05:00Z,27.1690,-82.9260,3.0,4.819,154.607,6.04,'1111122,1111122,1111122' 
COMPS,ioos:station:USF.COMPS:C10:1,2013-12-06T19:35:00Z,27.1690,-82.9260,3.0,5.528,154.591,6.567,'1111122,1111122,1111122' 
COMPS,ioos:station:USF.COMPS:C10:1,2013-12-06T20:05:00Z,27.1690,-82.9260,3.0,6.036,162.818,7.52,'1111122,1111122,1111122' 
COMPS,ioos:station:USF.COMPS:C10:1,2013-12-06T20:35:00Z,27.1690,-82.9260,3.0,5.558,165.482,6.63,'1111122,1111122,1111122' 
COMPS,ioos:station:USF.COMPS:C10:1,2013-12-06T21:05:00Z,27.1690,-82.9260,3.0,5.055,172.848,5.93,'1111122,1111122,1111122' 
COMPS,ioos:station:USF.COMPS:C10:1,2013-12-06T21:35:00Z,27.1690,-82.9260,3.0,4.346,181.449,5.287,'1111122,1111122,1111122' 
COMPS,ioos:station:USF.COMPS:C10:1,2013-12-06T22:05:00Z,27.1690,-82.9260,3.0,3.863,182.847,4.557,'1111122,1111122,1111122' 
COMPS,ioos:station:USF.COMPS:C10:1,2013-12-06T22:35:00Z,27.1690,-82.9260,3.0,3.809,199.543,4.65,'1111122,1111122,1111122' 
COMPS,ioos:station:USF.COMPS:C10:1,2013-12-06T23:05:00Z,27.1690,-82.9260,3.0,2.45,210.68,3.12,'1111122,1111122,1111122' 
COMPS,ioos:station:USF.COMPS:C10:1,2013-12-06T23:35:00Z,27.1690,-82.9260,3.0,2.243,214.697,2.943,'1111122,1111122,1111122' 
COMPS,ioos:station:USF.COMPS:C10:1,2013-12-07T00:05:00Z,27.1690,-82.9260,3.0,3.031,209.791,3.697,'1111122,1111122,1111122' 
COMPS,ioos:station:USF.COMPS:C10:1,2013-12-07T00:35:00Z,27.1690,-82.9260,3.0,1.708,167.243,2.203,'1111122,1111122,1111122' 
COMPS,ioos:station:USF.COMPS:C10:1,2013-12-07T01:05:00Z,27.1690,-82.9260,3.0,0.544,215.14,1.423,'1111122,1111122,1111122' 
COMPS,ioos:station:USF.COMPS:C10:1,2013-12-07T01:35:00Z,27.1690,-82.9260,3.0,0.923,186.202,1.283,'1111122,1111122,1111122' 
COMPS,ioos:station:USF.COMPS:C10:1,2013-12-07T02:05:00Z,27.1690,-82.9260,3.0,1.579,187.534,1.893,'1111122,1111122,1111122' 
COMPS,ioos:station:USF.COMPS:C10:1,2013-12-07T02:35:00Z,27.1690,-82.9260,3.0,2.138,176.335,2.54,'1111122,1111122,1111122' 
COMPS,ioos:station:USF.COMPS:C10:1,2013-12-07T03:05:00Z,27.1690,-82.9260,3.0,2.488,158.321,2.943,'1111122,1111122,1111122' 
COMPS,ioos:station:USF.COMPS:C10:1,2013-12-07T03:35:00Z,27.1690,-82.9260,3.0,2.726,187.927,3.27,'1111122,1111122,1111122' 
COMPS,ioos:station:USF.COMPS:C10:1,2013-12-07T04:05:00Z,27.1690,-82.9260,3.0,3.096,180.25,3.687,'1111122,1111122,1111122' 
COMPS,ioos:station:USF.COMPS:C10:1,2013-12-07T04:35:00Z,27.1690,-82.9260,3.0,2.965,173.878,3.517,'1111122,1111122,1111122' 
COMPS,ioos:station:USF.COMPS:C10:1,2013-12-07T05:05:00Z,27.1690,-82.9260,3.0,3.448,181.986,4.42,'1111122,1111122,1111122' 
COMPS,ioos:station:USF.COMPS:C10:1,2013-12-07T05:35:00Z,27.1690,-82.9260,3.0,3.058,161.612,3.833,'1111122,1111122,1111122' 
COMPS,ioos:station:USF.COMPS:C10:1,2013-12-07T06:05:00Z,27.1690,-82.9260,3.0,4.003,168.756,4.783,'1111122,1111122,1111122' 
COMPS,ioos:station:USF.COMPS:C10:1,2013-12-07T06:35:00Z,27.1690,-82.9260,3.0,3.72,166.413,4.737,'1111122,1111122,1111122' 
COMPS,ioos:station:USF.COMPS:C10:1,2013-12-07T07:05:00Z,27.1690,-82.9260,3.0,3.72,150.441,4.433,'1111122,1111122,1111122' 
COMPS,ioos:station:USF.COMPS:C10:1,2013-12-07T07:35:00Z,27.1690,-82.9260,3.0,3.684,134.841,4.473,'1111122,1111122,1111122' 
COMPS,ioos:station:USF.COMPS:C10:1,2013-12-07T08:05:00Z,27.1690,-82.9260,3.0,3.903,140.373,4.593,'1111122,1111122,1111122' 
COMPS,ioos:station:USF.COMPS:C10:1,2013-12-07T08:35:00Z,27.1690,-82.9260,3.0,4.008,142.91,4.893,'1111122,1111122,1111122' 
COMPS,ioos:station:USF.COMPS:C10:1,2013-12-07T09:05:00Z,27.1690,-82.9260,3.0,3.816,134.634,4.713,'1111122,1111122,1111122' 
COMPS,ioos:station:USF.COMPS:C10:1,2013-12-07T09:35:00Z,27.1690,-82.9260,3.0,3.558,129.471,4.31,'1111122,1111122,1111122' 
COMPS,ioos:station:USF.COMPS:C10:1,2013-12-07T10:05:00Z,27.1690,-82.9260,3.0,3.197,117.98,4.073,'1111122,1111122,1111122' 
COMPS,ioos:station:USF.COMPS:C10:1,2013-12-07T10:35:00Z,27.1690,-82.9260,3.0,3.498,109.48,4.207,'1111122,1111122,1111122' 
COMPS,ioos:station:USF.COMPS:C10:1,2013-12-07T11:05:00Z,27.1690,-82.9260,3.0,3.723,127.116,4.6,'1111122,1111122,1111122' 
COMPS,ioos:station:USF.COMPS:C10:1,2013-12-07T11:35:00Z,27.1690,-82.9260,3.0,3.567,126.513,4.487,'1111122,1111122,1111122' 
COMPS,ioos:station:USF.COMPS:C10:1,2013-12-12T17:05:00Z,27.1690,-82.9260,3.0,8.696,33.825,11.627,'1111122,1111122,1111122' 
COMPS,ioos:station:USF.COMPS:C10:1,2013-12-12T17:35:00Z,27.1690,-82.9260,3.0,9.287,29.982,10.973,'1111122,1111122,1111122' 
COMPS,ioos:station:USF.COMPS:C10:1,2013-12-12T18:05:00Z,27.1690,-82.9260,3.0,8.1,33.589,10.1,'1111122,1111122,1111122' 
COMPS,ioos:station:USF.COMPS:C10:1,2013-12-12T18:35:00Z,27.1690,-82.9260,3.0,7.825,23.304,10.03,'1111122,1111122,1111122' 
COMPS,ioos:station:USF.COMPS:C10:1,2013-12-12T19:05:00Z,27.1690,-82.9260,3.0,8.184,23.241,10.357,'1111122,1111122,1111122' 
COMPS,ioos:station:USF.COMPS:C10:1,2013-12-12T19:35:00Z,27.1690,-82.9260,3.0,8.116,29.841,10.597,'1111122,1111122,1111122' 
COMPS,ioos:station:USF.COMPS:C10:1,2013-12-12T20:05:00Z,27.1690,-82.9260,3.0,8.353,17.252,10.48,'1111122,1111122,1111122' 
COMPS,ioos:station:USF.COMPS:C10:1,2013-12-12T20:35:00Z,27.1690,-82.9260,3.0,7.544,20.301,9.023,'1111122,1111122,1111122' 
COMPS,ioos:station:USF.COMPS:C10:1,2013-12-12T21:05:00Z,27.1690,-82.9260,3.0,7.908,27.851,9.833,'1111122,1111122,1111122' 
COMPS,ioos:station:USF.COMPS:C10:1,2013-12-12T21:35:00Z,27.1690,-82.9260,3.0,9.094,19.255,10.823,'1111122,1111122,1111122' 
COMPS,ioos:station:USF.COMPS:C10:1,2013-12-12T22:05:00Z,27.1690,-82.9260,3.0,9.143,20.317,11.463,'1111122,1111122,1111122' 
COMPS,ioos:station:USF.COMPS:C10:1,2013-12-12T22:35:00Z,27.1690,-82.9260,3.0,9.016,23.133,10.993,'1111122,1111122,1111122' 
COMPS,ioos:station:USF.COMPS:C10:1,2013-12-12T23:05:00Z,27.1690,-82.9260,3.0,8.509,23.136,10.977,'1111122,1111122,1111122' 
COMPS,ioos:station:USF.COMPS:C10:1,2013-12-12T23:35:00Z,27.1690,-82.9260,3.0,8.667,30.618,10.743,'1111122,1111122,1111122' 
COMPS,ioos:station:USF.COMPS:C10:1,2013-12-13T00:05:00Z,27.1690,-82.9260,3.0,9.54,35.602,11.95,'1111122,1111122,1111122' 
COMPS,ioos:station:USF.COMPS:C10:1,2013-12-13T00:35:00Z,27.1690,-82.9260,3.0,9.299,46.023,11.487,'1111122,1111122,1111122' 
COMPS,ioos:station:USF.COMPS:C10:1,2013-12-13T01:05:00Z,27.1690,-82.9260,3.0,9.654,47.197,11.597,'1111122,1111122,1111122' 
COMPS,ioos:station:USF.COMPS:C10:1,2013-12-13T01:35:00Z,27.1690,-82.9260,3.0,10.876,50.22,13.103,'1111122,1111122,1111122' 
COMPS,ioos:station:USF.COMPS:C10:1,2013-12-13T02:05:00Z,27.1690,-82.9260,3.0,11.037,48.501,12.953,'1111122,1111122,1111122' 
COMPS,ioos:station:USF.COMPS:C10:1,2013-12-13T02:35:00Z,27.1690,-82.9260,3.0,9.981,58.888,11.92,'1111122,1111122,1111122' 
COMPS,ioos:station:USF.COMPS:C10:1,2013-12-13T04:05:00Z,27.1690,-82.9260,3.0,10.449,62.992,12.46,'1111122,1111122,1111122' 
COMPS,ioos:station:USF.COMPS:C10:1,2013-12-13T04:35:00Z,27.1690,-82.9260,3.0,10.347,60.468,12.357,'1111122,1111122,1111122' 
COMPS,ioos:station:USF.COMPS:C10:1,2013-12-13T05:05:00Z,27.1690,-82.9260,3.0,9.976,52.956,12.073,'1111122,1111122,1111122' 
COMPS,ioos:station:USF.COMPS:C10:1,2013-12-13T05:35:00Z,27.1690,-82.9260,3.0,10.308,51.715,12.77,'1111122,1111122,1111122' 
COMPS,ioos:station:USF.COMPS:C10:1,2013-12-13T06:05:00Z,27.1690,-82.9260,3.0,10.711,47.742,13.46,'1111122,1111122,1111122' 
COMPS,ioos:station:USF.COMPS:C10:1,2013-12-13T06:35:00Z,27.1690,-82.9260,3.0,10.528,47.393,12.777,'1111122,1111122,1111122' 
COMPS,ioos:station:USF.COMPS:C10:1,2013-12-13T07:05:00Z,27.1690,-82.9260,3.0,10.033,47.911,12.05,'1111122,1111122,1111122' 
COMPS,ioos:station:USF.COMPS:C10:1,2013-12-13T07:35:00Z,27.1690,-82.9260,3.0,9.823,47.119,12.207,'1111122,1111122,1111122' 
COMPS,ioos:station:USF.COMPS:C10:1,2013-12-13T08:05:00Z,27.1690,-82.9260,3.0,9.613,46.195,11.647,'1111122,1111122,1111122' 
COMPS,ioos:station:USF.COMPS:C10:1,2013-12-13T08:35:00Z,27.1690,-82.9260,3.0,9.561,48.12,11.703,'1111122,1111122,1111122' 
COMPS,ioos:station:USF.COMPS:C10:1,2013-12-13T09:05:00Z,27.1690,-82.9260,3.0,9.416,51.687,11.507,'1111122,1111122,1111122' 
COMPS,ioos:station:USF.COMPS:C10:1,2013-12-13T09:35:00Z,27.1690,-82.9260,3.0,9.134,52.193,10.997,'1111122,1111122,1111122' 
COMPS,ioos:station:USF.COMPS:C10:1,2013-12-13T10:05:00Z,27.1690,-82.9260,3.0,9.241,52.761,10.807,'1111122,1111122,1111122' 
COMPS,ioos:station:USF.COMPS:C10:1,2013-12-13T10:35:00Z,27.1690,-82.9260,3.0,8.826,51.999,11.273,'1111122,1111122,1111122' 
COMPS,ioos:station:USF.COMPS:C10:1,2013-12-13T11:05:00Z,27.1690,-82.9260,3.0,8.724,54.214,10.89,'1111122,1111122,1111122' 
COMPS,ioos:station:USF.COMPS:C10:1,2013-12-13T11:35:00Z,27.1690,-82.9260,3.0,8.127,55.951,10.16,'1111122,1111122,1111122' 
COMPS,ioos:station:USF.COMPS:C10:1,2013-12-13T12:05:00Z,27.1690,-82.9260,3.0,8.597,59.59,10.193,'1111122,1111122,1111122' 
COMPS,ioos:station:USF.COMPS:C10:1,2013-12-13T12:35:00Z,27.1690,-82.9260,3.0,8.061,60.197,9.603,'1111122,1111122,1111122' 
COMPS,ioos:station:USF.COMPS:C10:1,2013-12-13T13:05:00Z,27.1690,-82.9260,3.0,8.048,57.1,9.58,'1111122,1111122,1111122' 
COMPS,ioos:station:USF.COMPS:C10:1,2013-12-13T13:35:00Z,27.1690,-82.9260,3.0,7.776,52.88,9.4,'1111122,1111122,1111122' 
COMPS,ioos:station:USF.COMPS:C10:1,2013-12-13T14:05:00Z,27.1690,-82.9260,3.0,7.709,48.55,9.203,'1111122,1111122,1111122' 
COMPS,ioos:station:USF.COMPS:C10:1,2013-12-13T14:35:00Z,27.1690,-82.9260,3.0,8.02,53.444,9.533,'1111122,1111122,1111122' 
COMPS,ioos:station:USF.COMPS:C10:1,2013-12-13T15:05:00Z,27.1690,-82.9260,3.0,7.617,55.972,9.103,'1111122,1111122,1111122' 
COMPS,ioos:station:USF.COMPS:C10:1,2013-12-13T15:35:00Z,27.1690,-82.9260,3.0,7.529,59.945,9.217,'1111122,1111122,1111122' 
COMPS,ioos:station:USF.COMPS:C10:1,2013-12-13T16:05:00Z,27.1690,-82.9260,3.0,7.271,62.17,8.757,'1111122,1111122,1111122' 
COMPS,ioos:station:USF.COMPS:C10:1,2013-12-13T16:35:00Z,27.1690,-82.9260,3.0,7.085,68.03,8.1,'1111122,1111122,1111122' 
COMPS,ioos:station:USF.COMPS:C10:1,2013-12-13T17:05:00Z,27.1690,-82.9260,3.0,7.216,67.987,8.667,'1111122,1111122,1111122' 
COMPS,ioos:station:USF.COMPS:C10:1,2013-12-13T17:35:00Z,27.1690,-82.9260,3.0,6.3,73.239,7.817,'1111122,1111122,1111122' 
COMPS,ioos:station:USF.COMPS:C10:1,2013-12-13T18:05:00Z,27.1690,-82.9260,3.0,6.208,71.602,7.53,'1111122,1111122,1111122' 
COMPS,ioos:station:USF.COMPS:C10:1,2013-12-13T18:35:00Z,27.1690,-82.9260,3.0,5.868,77.324,7.383,'1111122,1111122,1111122' 
COMPS,ioos:station:USF.COMPS:C10:1,2013-12-13T19:05:00Z,27.1690,-82.9260,3.0,4.982,82.963,6.073,'1111122,1111122,1111122' 
COMPS,ioos:station:USF.COMPS:C10:1,2013-12-13T19:35:00Z,27.1690,-82.9260,3.0,4.678,83.156,5.557,'1111122,1111122,1111122' 
COMPS,ioos:station:USF.COMPS:C10:1,2013-12-13T20:05:00Z,27.1690,-82.9260,3.0,4.149,77.077,5.027,'1111122,1111122,1111122' 
COMPS,ioos:station:USF.COMPS:C10:1,2013-12-13T20:35:00Z,27.1690,-82.9260,3.0,3.085,59.887,3.817,'1111122,1111122,1111122' 
COMPS,ioos:station:USF.COMPS:C10:1,2013-12-13T21:05:00Z,27.1690,-82.9260,3.0,2.934,57.557,3.603,'1111122,1111122,1111122' 
COMPS,ioos:station:USF.COMPS:C10:1,2013-12-13T21:35:00Z,27.1690,-82.9260,3.0,2.825,67.91,3.413,'1111122,1111122,1111122' 
COMPS,ioos:station:USF.COMPS:C10:1,2013-12-13T22:05:00Z,27.1690,-82.9260,3.0,2.897,95.551,3.71,'1111122,1111122,1111122' 
COMPS,ioos:station:USF.COMPS:C10:1,2013-12-13T22:35:00Z,27.1690,-82.9260,3.0,2.304,60.538,2.907,'1111122,1111122,1111122' 
COMPS,ioos:station:USF.COMPS:C10:1,2013-12-13T23:05:00Z,27.1690,-82.9260,3.0,3.113,82.646,3.93,'1111122,1111122,1111122' 
COMPS,ioos:station:USF.COMPS:C10:1,2013-12-13T23:35:00Z,27.1690,-82.9260,3.0,4.964,95.486,6.083,'1111122,1111122,1111122' 
COMPS,ioos:station:USF.COMPS:C10:1,2013-12-14T00:05:00Z,27.1690,-82.9260,3.0,4.653,81.312,5.677,'1111122,1111122,1111122' 
COMPS,ioos:station:USF.COMPS:C10:1,2013-12-14T00:35:00Z,27.1690,-82.9260,3.0,5.772,92.574,7.057,'1111122,1111122,1111122' 
COMPS,ioos:station:USF.COMPS:C10:1,2013-12-14T01:05:00Z,27.1690,-82.9260,3.0,6.96,90.255,9.0,'1111122,1111122,1111122' 
COMPS,ioos:station:USF.COMPS:C10:1,2013-12-14T01:35:00Z,27.1690,-82.9260,3.0,8.113,90.841,10.05,'1111122,1111122,1111122' 
COMPS,ioos:station:USF.COMPS:C10:1,2013-12-14T02:05:00Z,27.1690,-82.9260,3.0,8.792,98.244,10.723,'1111122,1111122,1111122' 